Theta_e
313 318 318 319 320 319 316 314 315 316 316 316 316 317 318 318 318 316 318 318 312 314 319 317 317 318 319 319 313 310 312 311 309 308 306 304 303 303 303 303 303 303 302 303 304 305 306 307 307 307 308 308 308 309 309 310 310 310 310 310 310 310 310 310 311 313 316 318 319 320 321 322 322 322 323 323 323 323 323 323 323 323 323 323 323 324
314 319 320 321 320 317 316 314 313 313 313 313 315 316 317 317 318 317 318 318 312 314 321 317 316 320 320 317 311 309 312 309 307 306 304 303 302 301 301 301 302 302 302 303 304 305 306 307 307 307 307 308 308 308 308 308 308 308 309 308 309 309 309 308 308 309 310 311 312 314 316 317 318 319 320 320 320 321 321 321 321 321 322 322 322 322
315 318 318 317 315 313 314 314 313 315 314 315 316 316 318 319 319 319 318 318 314 314 322 320 316 319 318 314 309 307 308 307 306 305 303 303 302 301 301 300 301 302 303 304 304 305 306 306 307 307 307 307 307 307 308 308 307 307 307 307 307 307 307 307 308 308 308 308 309 309 310 311 312 313 314 315 315 316 317 317 318 319 319 320 320 320
317 319 316 312 311 313 315 315 315 315 315 318 318 317 319 318 317 321 320 319 318 315 319 319 316 319 318 312 309 306 305 305 304 303 302 302 301 300 300 300 301 301 302 304 304 305 306 306 307 307 307 307 307 307 307 308 307 307 307 307 307 307 306 306 307 307 307 308 308 308 308 308 308 308 309 309 310 310 310 311 312 313 315 316 316 317
320 319 314 311 313 315 316 317 316 315 318 323 322 318 320 320 318 321 320 320 321 319 317 316 320 327 323 316 312 307 305 304 303 302 302 301 300 300 300 300 300 301 302 303 304 305 306 307 307 307 307 307 307 307 307 307 307 307 307 306 306 306 306 306 306 306 306 307 307 307 307 307 307 307 307 307 306 306 306 306 306 307 308 309 310 312
318 315 313 315 317 316 317 320 320 318 319 324 324 321 319 320 320 320 320 320 323 323 318 315 322 331 328 321 314 308 307 305 303 302 301 300 300 299 299 299 299 300 301 303 304 305 306 306 306 306 306 306 306 306 306 306 306 306 306 305 305 305 305 306 306 306 306 306 306 306 307 307 306 307 306 306 305 305 305 305 304 304 304 305 305 306
318 314 315 319 320 319 319 320 322 321 320 321 323 322 321 321 321 322 320 320 323 323 317 315 321 325 326 325 316 309 308 306 303 302 301 300 299 298 298 298 299 299 301 302 303 304 305 305 305 306 306 305 305 305 305 305 305 305 305 305 305 304 304 305 305 305 305 305 305 306 306 306 306 306 305 305 305 304 304 304 304 304 304 304 304 304
318 316 316 317 319 320 319 320 321 320 321 324 321 322 325 323 321 322 319 318 321 319 319 320 318 317 321 322 314 309 309 306 304 302 300 300 299 298 298 297 298 299 300 301 303 303 304 304 304 304 304 304 304 304 304 304 305 304 304 304 304 304 304 304 304 303 304 304 304 304 304 304 304 304 304 304 304 304 304 304 304 304 303 303 303 303
316 317 319 319 318 319 321 324 321 319 321 323 319 320 323 319 319 322 318 319 318 314 321 324 316 315 321 320 311 308 311 308 305 303 301 300 299 298 297 297 297 298 299 301 302 302 303 303 303 303 303 304 303 304 304 304 304 304 304 304 304 304 303 303 302 302 302 302 302 303 303 303 303 303 303 303 303 303 303 303 303 303 303 303 303 303
314 313 316 320 321 322 325 322 318 320 320 316 315 318 322 320 320 321 318 319 318 314 320 323 317 316 323 322 311 308 313 311 306 303 301 300 299 298 297 297 297 297 298 300 301 301 302 302 302 303 303 303 303 303 303 304 304 303 303 303 303 303 302 302 302 301 301 301 301 302 302 302 302 302 301 302 302 302 302 302 302 302 302 302 302 302
313 310 311 316 318 319 321 314 310 315 314 310 316 322 325 325 322 321 321 319 317 319 322 321 318 316 320 325 317 310 311 310 305 303 301 299 298 298 297 297 297 297 298 299 300 301 301 301 302 303 303 303 303 303 303 303 303 303 303 303 303 302 302 301 301 301 301 301 301 301 301 301 301 301 301 301 301 301 300 300 300 300 301 301 301 301
314 313 311 312 312 312 316 314 310 311 309 312 321 323 322 325 323 322 323 319 317 323 325 320 316 314 319 323 317 309 307 306 305 303 300 299 298 298 297 297 297 297 298 299 300 300 301 302 302 303 303 303 303 303 303 303 302 303 302 302 302 301 301 300 300 300 300 300 300 300 300 300 300 300 300 300 300 300 300 300 299 299 299 299 299 300
318 319 313 311 311 311 317 319 314 314 315 317 321 321 321 322 319 319 321 319 320 322 320 317 316 315 319 317 310 306 304 304 305 302 300 299 298 298 297 297 297 298 298 299 300 301 301 302 303 302 302 302 302 302 302 302 302 301 301 301 301 301 300 299 299 299 299 299 299 299 299 299 299 299 299 299 299 298 298 298 298 298 299 299 299 299
321 322 315 313 313 312 316 319 317 319 318 315 317 321 322 320 317 319 319 316 317 320 316 314 315 317 320 313 305 303 301 300 302 301 300 299 298 298 297 297 297 298 299 300 301 302 302 302 302 302 302 301 301 301 301 301 300 300 300 299 299 299 298 298 298 298 298 298 297 297 297 297 296 296 296 296 296 295 295 295 295 295 295 295 296 296
322 324 320 317 316 314 314 315 321 326 318 313 318 319 319 323 321 320 320 317 319 322 317 313 315 321 322 311 302 300 299 298 300 300 299 299 298 298 297 297 297 298 299 300 301 302 302 301 301 301 301 300 300 300 299 299 299 299 298 298 298 297 297 296 296 296 296 295 295 295 294 294 294 293 293 293 293 292 292 292 291 291 291 291 291 291
319 324 323 315 312 313 314 312 316 323 319 313 315 316 317 322 321 318 320 321 320 321 318 317 319 318 313 305 300 300 299 298 299 298 298 298 297 297 297 297 298 298 299 299 301 301 301 300 300 300 300 299 299 299 298 298 298 297 297 297 296 296 295 295 294 294 294 294 293 293 293 292 292 291 291 291 290 290 290 289 289 289 289 289 289 289
316 323 321 312 310 311 311 312 312 316 320 314 313 319 319 317 318 320 320 318 316 318 319 320 319 312 308 306 302 300 300 299 298 297 298 298 297 297 297 297 297 298 299 299 300 300 300 300 299 299 299 299 298 298 297 297 296 295 295 294 293 293 293 292 292 292 292 292 292 292 292 291 291 291 290 290 290 289 289 289 289 289 289 289 289 288
319 323 320 314 315 311 306 310 310 308 315 317 317 320 317 314 317 321 321 319 318 318 318 319 318 314 314 312 304 301 302 301 299 298 297 297 297 297 297 297 298 298 299 299 300 300 299 299 299 299 298 298 298 297 296 295 294 293 292 292 291 291 291 291 291 290 290 290 290 290 290 290 290 290 290 289 289 289 289 289 289 289 288 288 288 288
318 321 320 314 315 313 308 312 314 309 309 314 316 315 314 316 320 319 318 320 319 317 318 321 318 316 317 314 308 305 304 301 300 299 298 297 297 297 297 297 298 298 299 299 299 299 299 298 298 298 297 297 296 295 294 293 292 291 291 290 290 290 290 290 290 290 289 290 289 289 289 289 289 289 289 289 289 289 289 289 289 289 288 288 288 288
317 319 320 314 312 313 313 315 319 316 309 309 311 312 314 317 319 318 316 318 320 316 317 319 317 319 321 317 314 312 305 300 301 300 298 297 297 297 298 298 299 299 299 299 299 298 298 298 297 297 296 296 295 293 292 291 291 290 290 290 290 290 290 289 289 289 289 289 289 289 289 289 289 289 288 289 288 289 289 289 289 289 289 289 288 288
316 315 318 316 312 313 316 316 319 320 314 313 315 314 314 314 316 317 315 316 320 318 318 316 314 321 321 313 312 312 305 301 300 299 298 297 297 298 299 300 300 300 299 298 298 298 298 297 297 296 296 295 293 292 291 291 290 290 290 290 290 290 289 289 289 289 289 289 288 288 288 288 288 288 288 288 288 288 288 288 288 288 288 288 288 288
314 315 321 321 316 316 319 316 315 319 319 320 321 318 317 316 316 317 315 315 317 317 318 316 315 319 317 308 308 308 303 301 299 298 298 297 298 300 300 300 300 299 299 298 298 297 297 297 296 295 294 293 292 291 290 290 290 290 289 289 289 289 289 289 288 288 288 288 288 288 288 288 288 288 288 288 288 288 288 288 288 288 288 288 288 288
312 317 322 321 318 317 316 310 308 313 317 319 318 316 318 318 317 317 315 316 316 315 315 315 315 317 312 306 305 304 301 300 299 299 299 299 300 300 300 300 299 299 299 298 298 297 296 296 295 294 293 292 291 290 290 289 289 289 289 289 289 289 289 288 288 288 288 288 288 288 288 288 288 288 288 288 288 288 288 288 288 288 288 288 287 287
313 317 318 318 319 316 312 310 310 311 313 315 315 314 315 317 317 316 315 316 317 316 314 314 315 315 310 304 301 301 300 300 300 300 301 300 300 300 301 301 300 300 298 297 297 296 295 295 293 293 292 291 290 290 289 289 289 289 289 288 289 289 288 289 288 288 288 289 289 289 288 288 288 288 288 288 288 288 288 287 287 287 287 287 287 287
314 317 316 317 319 316 313 312 314 314 314 315 316 314 313 314 314 312 311 312 314 314 314 313 313 314 311 304 301 301 301 300 299 301 301 301 302 302 302 302 301 300 298 297 297 296 295 294 293 292 291 290 290 289 289 289 289 289 289 289 289 289 289 289 289 289 289 289 289 289 288 288 288 288 288 288 288 287 287 287 287 287 286 286 286 286
315 317 316 316 317 316 315 314 314 315 314 313 312 311 310 312 312 311 310 311 312 312 313 313 313 312 309 306 305 304 303 303 302 300 301 302 303 304 303 303 302 300 298 298 297 295 294 293 292 291 290 290 289 289 289 289 289 289 289 289 289 289 289 289 289 289 289 289 289 289 289 288 288 288 288 287 287 287 287 287 286 286 286 286 286 286
315 314 314 316 316 314 315 314 311 312 313 312 311 310 309 309 309 310 310 310 311 310 310 310 311 310 308 308 308 306 307 308 304 300 302 303 303 304 303 303 302 300 299 297 296 295 293 292 291 290 290 289 289 289 289 289 289 290 290 290 289 289 289 289 289 289 289 289 289 289 288 288 288 288 287 287 287 287 286 286 286 286 286 285 285 285
314 313 312 313 314 312 312 312 310 309 312 313 311 311 310 308 307 308 308 309 310 309 308 308 308 308 308 307 307 308 309 308 302 301 303 304 303 303 303 302 301 299 298 296 294 294 292 291 290 290 289 289 289 290 290 290 290 290 290 289 289 289 289 289 289 289 289 289 289 288 288 288 288 288 287 287 286 286 286 286 285 285 285 285 285 285
314 313 310 310 312 310 308 309 308 307 309 311 310 310 310 307 306 306 307 307 308 308 307 307 307 307 306 305 305 306 307 306 303 302 302 302 301 301 301 301 300 298 296 294 294 293 292 291 291 290 290 291 291 291 291 291 290 290 289 289 289 289 289 289 289 289 289 289 288 288 288 288 288 287 287 286 286 285 285 285 284 284 284 284 284 284
310 312 308 308 310 309 306 306 305 305 306 307 306 307 307 305 304 304 304 304 305 306 306 305 305 304 304 303 303 303 302 301 301 301 301 300 300 300 300 300 299 297 295 294 294 294 292 291 292 292 292 292 292 291 291 291 290 290 289 289 289 289 289 289 289 289 289 289 288 288 288 287 287 287 286 285 285 284 284 284 284 284 284 284 284 284
307 309 306 305 308 307 304 304 305 304 304 304 304 303 302 301 301 302 302 301 302 303 303 302 302 302 301 300 300 300 300 299 299 299 300 300 299 299 299 298 297 296 295 295 294 294 293 293 293 293 292 292 291 291 290 290 290 290 290 289 289 289 289 289 289 289 289 288 288 287 287 287 287 286 285 284 284 284 284 283 283 283 283 284 284 284
306 307 304 304 308 306 301 301 303 302 301 301 301 300 298 299 300 300 300 300 301 301 300 300 301 301 300 299 299 299 298 297 297 298 298 299 299 299 298 297 296 296 295 294 294 294 293 293 293 293 292 291 291 291 290 290 290 290 289 289 289 289 289 289 288 288 288 288 287 287 287 286 285 284 284 284 283 283 283 283 283 283 283 284 284 284
305 306 305 305 307 304 299 300 302 301 301 301 300 299 299 298 298 298 298 299 299 299 300 300 300 300 300 299 300 299 297 295 296 297 298 298 298 298 298 297 296 294 293 293 293 292 292 292 292 292 291 291 290 290 290 290 289 289 289 289 289 288 288 288 288 288 287 287 287 286 285 284 284 283 283 283 283 283 283 283 283 283 283 283 283 283
303 305 305 304 305 303 298 299 301 300 300 300 300 301 300 299 299 298 298 298 299 299 300 300 300 300 300 300 301 300 298 296 296 297 297 297 297 297 296 295 294 292 292 291 291 291 291 291 291 290 290 290 290 289 289 289 289 289 288 288 288 288 288 288 287 287 287 286 285 285 284 283 283 283 283 282 282 283 283 283 283 283 283 283 283 283
303 304 304 302 303 301 298 299 301 300 299 299 300 300 299 299 299 298 298 299 298 299 299 299 300 300 298 298 299 298 297 296 295 295 296 295 295 295 294 293 292 291 291 291 291 291 291 291 290 290 290 290 289 289 289 289 289 288 288 288 288 288 287 287 287 286 286 285 284 283 283 283 283 282 282 282 283 283 283 282 282 282 282 282 282 282
303 303 303 302 301 299 298 300 300 298 297 299 299 297 296 296 297 297 298 299 298 298 298 299 299 298 295 295 297 296 295 294 293 292 293 293 294 293 292 292 292 291 291 291 291 291 291 291 290 290 290 290 289 289 289 289 288 288 288 288 288 288 287 287 286 285 284 284 283 283 283 282 282 282 282 282 283 282 282 282 282 282 281 281 281 281
301 302 302 302 300 299 299 299 299 298 298 298 298 297 296 296 297 298 298 298 297 295 295 297 299 296 292 293 295 294 292 292 291 291 292 292 293 292 292 293 292 291 291 291 291 291 291 291 290 290 290 289 289 289 288 288 288 288 288 288 288 287 287 286 285 284 283 283 283 283 282 282 282 282 282 282 282 282 281 281 281 281 280 281 281 280
299 301 302 301 299 298 298 297 298 298 297 297 297 296 295 295 297 298 297 299 298 294 292 296 299 294 289 290 291 291 291 292 293 293 293 293 293 292 292 292 292 292 291 291 291 291 290 290 290 289 289 289 289 289 288 288 288 288 288 288 288 287 286 286 285 284 283 283 283 282 282 282 282 282 282 282 281 281 281 281 281 280 280 280 280 279
298 299 300 300 299 298 297 298 298 297 297 299 299 296 293 293 295 295 295 298 297 292 292 295 295 292 291 291 290 290 292 293 294 294 293 293 293 292 292 292 291 291 291 291 291 290 290 290 289 289 289 289 288 288 288 288 288 288 287 288 287 287 286 285 284 283 283 283 282 281 281 281 281 281 281 281 281 281 281 280 280 280 279 279 278 277
298 298 299 299 299 298 297 297 297 297 297 299 298 294 291 292 295 295 296 298 295 292 292 294 293 293 294 293 290 291 293 294 294 293 293 293 292 292 291 291 291 291 291 290 290 290 289 289 289 289 289 288 288 288 288 288 287 287 287 287 287 286 285 284 283 283 283 282 281 281 281 281 281 281 281 280 280 280 280 280 279 279 279 278 277 276
295 297 298 298 298 298 297 297 296 297 297 296 294 293 292 292 295 296 296 298 295 292 293 294 293 293 294 292 291 291 293 293 293 293 293 292 292 291 291 291 291 290 290 290 289 289 289 289 289 289 289 288 288 288 288 287 287 287 287 287 287 286 285 283 283 283 282 281 281 281 281 281 281 280 280 280 280 280 280 279 279 278 278 277 276 275
294 295 296 297 297 297 297 297 296 296 297 294 293 293 292 292 295 296 295 295 294 292 293 294 293 293 294 293 292 292 293 293 292 293 293 292 291 291 291 290 290 290 289 289 289 289 289 289 289 289 288 288 288 288 287 287 287 287 287 287 286 285 284 283 283 282 281 281 281 281 281 281 280 280 280 280 280 280 280 279 278 278 277 276 275 274
295 295 294 295 297 296 296 295 295 296 296 293 293 293 293 294 297 296 294 294 294 293 293 293 293 293 293 293 293 293 293 293 292 293 292 291 291 291 290 290 290 290 289 289 289 289 289 289 288 288 288 288 288 287 287 287 287 287 287 286 285 284 283 282 282 282 281 281 281 281 280 280 280 280 280 280 279 279 279 279 278 277 276 275 275 274
296 296 295 295 295 295 295 295 295 295 294 293 294 295 294 295 296 295 294 294 294 294 294 293 293 293 293 293 293 293 293 293 292 293 292 291 291 291 290 290 290 289 289 289 289 289 289 288 288 288 288 288 287 287 287 287 287 287 286 285 284 283 282 282 282 281 281 280 280 280 280 280 280 280 279 279 279 279 279 278 278 277 276 275 275 274
295 295 296 296 296 294 294 296 296 294 293 293 295 295 294 295 295 294 294 294 294 294 294 293 293 293 293 293 293 292 293 293 292 292 292 291 291 291 290 290 290 289 289 289 289 289 288 288 288 288 288 287 287 287 287 286 287 286 285 284 283 282 282 282 281 281 280 280 280 280 280 280 279 279 279 279 278 278 278 278 277 277 276 275 274 274
293 291 292 295 296 293 291 292 293 292 292 293 294 294 294 294 294 294 294 294 294 294 294 293 293 293 293 293 292 292 292 292 292 292 292 292 292 291 290 290 290 289 289 289 289 289 288 288 288 288 287 287 287 286 286 286 286 286 285 283 282 282 282 281 281 280 280 280 280 279 279 279 279 279 279 278 278 278 278 277 277 277 276 275 274 274
292 290 291 293 294 294 293 292 292 292 292 293 293 294 294 293 294 293 293 293 293 293 293 293 293 293 292 292 292 292 292 292 292 292 292 292 292 291 290 290 290 289 289 289 289 288 288 288 288 287 287 287 286 286 286 286 286 285 283 282 282 281 281 281 280 280 280 280 279 279 279 279 279 279 279 278 278 278 277 277 277 276 276 275 274 274
292 291 293 293 292 293 294 293 291 292 293 293 293 293 293 293 293 293 293 293 293 292 293 292 292 292 292 292 292 292 292 292 291 292 292 292 292 291 290 290 290 289 289 289 289 288 288 288 287 287 287 286 286 286 286 285 285 283 282 281 281 281 281 280 280 280 279 279 279 279 279 279 279 279 279 278 278 278 277 277 277 276 276 275 274 273
292 292 293 293 292 292 292 292 291 291 291 292 292 292 292 292 293 293 292 292 292 292 292 292 292 292 292 292 292 292 291 291 291 291 292 292 291 291 291 290 290 289 289 289 289 288 288 287 287 287 286 286 285 285 285 284 283 282 281 281 281 281 280 280 280 279 279 279 278 278 279 279 278 278 278 278 278 277 277 277 277 276 276 275 275 273
292 292 292 292 292 292 292 291 291 291 291 292 292 292 292 292 292 292 292 292 292 292 292 292 292 292 292 292 292 291 291 291 291 291 291 291 291 291 291 290 290 289 289 289 288 288 288 287 287 286 286 285 285 285 284 283 282 281 281 281 281 280 280 279 279 279 279 278 278 278 278 278 278 278 277 277 277 277 277 277 277 276 275 275 275 274
292 292 292 292 292 292 292 291 292 291 291 292 292 292 292 292 292 292 292 292 292 292 292 292 292 292 292 292 292 291 291 291 291 291 291 291 291 291 290 290 290 289 289 289 288 288 288 287 286 286 285 285 285 284 284 282 281 280 281 280 280 280 279 279 279 279 278 278 278 278 278 277 277 277 277 277 277 277 277 277 277 277 276 275 274 274
Wind_Speed
6 4 2 5 6 9 10 11 10 6 3 3 2 2 4 5 6 5 6 7 1 1 6 6 4 5 8 9 10 13 9 7 10 12 15 15 16 17 18 19 19 20 20 17 16 16 15 14 13 12 11 10 8 8 8 8 8 8 7 5 5 5 3 1 2 4 6 6 7 7 7 6 6 6 6 6 6 7 8 10 11 12 13 14 15 16
4 3 6 10 11 11 8 7 7 4 2 2 3 3 5 5 6 6 6 7 1 2 5 3 2 7 9 7 8 9 7 9 10 14 15 16 17 17 18 20 20 21 20 20 22 22 22 22 21 21 20 19 18 18 19 19 18 16 15 14 14 13 11 11 9 6 4 3 2 3 4 5 6 7 7 7 7 7 7 8 9 10 10 11 12 13
2 3 11 15 10 5 2 3 6 4 4 3 2 2 4 4 4 6 5 5 1 3 4 3 2 8 8 3 8 9 9 10 12 15 15 16 17 17 18 19 20 22 23 24 26 27 28 28 29 30 31 30 29 29 29 29 27 25 24 22 20 18 17 17 16 14 13 11 9 8 6 3 1 1 3 5 6 7 8 10 11 12 12 12 13 14
3 6 14 16 7 2 5 3 6 3 2 3 4 3 4 4 1 4 5 4 2 1 3 3 3 7 5 3 7 9 12 15 17 18 17 18 19 18 17 19 20 23 25 27 28 29 30 31 32 33 34 33 32 33 33 32 31 30 29 27 24 23 21 20 19 18 17 14 13 12 11 10 9 7 4 1 1 3 5 7 9 12 13 15 16 17
7 9 8 6 5 5 6 6 3 4 2 4 6 6 5 4 5 5 4 4 4 4 2 3 4 5 5 2 3 7 11 14 15 17 18 17 18 18 19 20 22 23 25 28 29 30 31 32 33 34 33 33 32 33 33 31 31 30 29 28 27 26 24 22 21 19 18 17 16 15 14 14 13 12 11 9 8 5 1 1 3 6 8 11 14 16
8 10 3 4 4 6 6 6 4 6 2 4 5 9 9 7 7 4 1 4 4 4 3 3 3 5 5 2 4 5 5 8 10 13 14 14 16 18 19 21 22 24 26 28 30 31 32 32 32 32 32 31 32 32 31 29 28 28 27 27 26 26 25 25 23 20 19 19 19 18 17 17 16 15 15 14 14 11 9 6 4 2 3 5 7 10
6 8 4 5 5 6 5 6 5 7 4 3 5 7 7 5 4 4 3 3 1 3 3 3 1 5 6 3 4 6 4 5 6 8 10 13 14 16 18 19 21 23 26 28 30 31 31 31 30 30 29 29 30 30 28 26 26 26 25 25 25 25 25 24 23 21 20 20 20 20 19 19 18 18 17 15 14 13 12 10 8 5 3 2 2 4
5 5 3 5 5 5 5 5 6 7 6 3 4 4 6 6 5 5 5 2 3 2 4 2 2 3 5 4 5 8 7 4 4 5 7 11 13 14 16 18 20 22 25 28 30 29 29 29 28 29 28 27 27 26 25 24 24 24 23 23 22 22 22 22 21 20 20 20 20 20 19 19 19 18 16 14 13 12 12 11 10 9 7 5 4 3
2 3 4 6 5 4 6 5 7 9 5 6 5 6 6 6 5 4 5 2 1 1 5 4 1 2 5 4 2 6 5 4 5 4 4 9 11 13 15 16 19 21 24 27 28 28 28 27 27 26 26 25 24 23 22 22 22 21 21 20 19 19 20 19 18 18 18 18 18 18 18 18 18 18 16 14 13 12 12 11 11 11 10 9 8 8
1 2 4 7 5 5 6 3 4 7 4 4 5 5 5 5 5 4 5 3 2 1 5 6 3 2 5 4 2 4 4 4 5 4 5 9 11 12 14 16 18 20 22 25 26 26 26 25 25 23 22 22 21 20 20 19 19 19 18 17 17 18 18 17 16 15 15 15 15 15 16 16 16 16 14 13 12 12 12 12 11 11 11 10 10 10
1 1 1 3 4 5 5 2 1 2 3 5 6 5 6 5 4 4 2 4 2 3 6 8 8 6 4 4 3 3 3 4 8 6 6 10 13 14 14 15 18 19 21 23 24 24 23 23 22 20 19 19 18 17 16 16 17 16 16 15 15 16 15 14 14 13 13 13 13 14 14 13 14 13 12 11 12 12 12 12 13 12 12 11 11 10
4 1 2 2 3 4 7 4 3 4 3 5 5 4 3 4 4 4 4 3 1 5 6 6 6 6 4 4 2 3 5 2 9 10 10 12 15 16 16 16 18 19 21 22 22 22 21 20 18 17 16 15 14 13 14 15 15 14 14 13 12 12 12 12 12 12 12 12 13 13 12 12 13 12 12 12 12 12 12 12 13 12 11 12 11 11
3 4 3 2 2 5 6 4 3 5 5 5 4 5 3 2 3 3 3 0 3 6 4 2 5 2 5 3 2 4 7 6 5 14 16 18 20 19 18 18 19 19 20 21 21 20 19 17 15 14 13 13 12 12 12 13 12 11 11 9 9 9 10 10 10 10 11 11 12 12 12 12 12 12 12 13 13 13 13 13 13 12 12 12 12 13
3 5 3 1 2 6 8 5 2 1 1 4 4 4 4 2 1 3 4 2 4 5 3 2 4 2 4 1 3 4 7 6 6 18 21 22 23 22 21 20 19 20 19 20 19 18 16 14 13 12 11 11 10 11 10 10 9 8 8 7 7 8 8 8 8 9 9 10 11 11 12 12 12 12 13 13 14 14 15 15 15 15 15 15 14 15
2 4 3 4 2 6 8 6 6 5 3 4 4 5 5 4 4 4 4 3 4 5 3 2 2 2 3 1 3 3 5 6 13 20 21 22 23 22 20 19 19 19 18 18 17 16 14 12 11 10 9 9 9 9 8 8 7 6 6 6 6 7 7 7 7 8 9 10 11 11 12 13 13 14 14 14 15 15 15 16 17 17 17 17 17 17
3 5 6 2 1 7 7 4 6 6 2 2 3 4 2 4 4 2 4 5 3 3 4 2 2 3 3 1 3 4 7 8 12 16 18 19 19 19 19 19 18 17 17 16 15 13 12 10 9 8 7 7 7 6 6 6 5 5 4 4 4 4 4 5 5 6 8 9 9 10 11 12 12 13 13 14 15 15 16 17 17 18 18 18 19 19
3 4 5 2 1 3 3 2 4 3 2 2 2 3 4 4 5 2 3 1 3 2 4 2 2 2 0 1 2 4 5 5 6 10 15 17 18 19 19 19 18 17 16 15 13 11 10 8 7 6 5 5 4 4 4 4 4 5 5 4 4 4 4 4 4 5 5 6 6 7 8 9 10 12 13 14 14 15 16 16 17 17 18 18 19 19
4 3 5 1 2 1 1 3 4 3 3 5 3 5 3 1 4 4 1 2 2 3 4 2 4 3 1 2 1 1 2 3 4 6 10 14 17 18 19 18 18 17 16 14 12 10 8 7 5 4 3 3 3 3 4 4 5 6 6 5 5 4 5 5 5 6 5 5 5 5 6 6 7 8 9 11 12 13 15 15 16 17 18 19 20 20
4 1 6 1 3 2 2 4 2 4 3 4 3 3 3 2 1 1 2 2 2 4 4 4 5 4 4 4 3 6 9 8 7 6 8 12 17 19 18 19 18 17 16 14 12 10 8 7 5 3 3 3 3 4 5 6 6 6 5 4 4 4 6 6 7 7 7 7 7 8 8 8 8 9 9 10 11 12 13 14 15 16 17 18 20 21
3 2 4 2 1 1 3 2 3 2 2 3 2 0 1 2 4 2 2 3 2 3 4 5 5 4 5 5 8 11 12 11 10 8 8 14 19 20 21 21 20 18 16 14 13 11 8 6 4 3 3 3 3 4 5 6 5 4 3 4 5 7 8 8 9 9 9 10 10 11 11 12 12 13 14 14 15 15 16 16 17 17 17 18 20 21
2 3 3 3 2 1 2 3 6 6 3 2 2 1 1 1 1 1 1 3 3 3 3 4 5 5 4 2 6 10 9 12 13 11 10 16 20 22 23 23 20 18 17 15 13 11 9 7 5 5 4 4 5 5 5 4 3 2 3 4 6 7 8 8 9 10 10 11 12 13 13 14 15 16 17 18 19 20 20 21 22 22 22 22 22 23
1 3 3 1 1 3 4 4 5 7 6 5 4 4 4 3 2 2 3 1 3 3 3 4 6 6 3 1 2 5 6 11 15 13 12 18 22 24 24 23 19 17 16 15 13 12 10 9 8 8 7 7 7 6 4 3 1 2 3 4 5 6 7 8 9 10 11 13 14 15 16 16 17 18 20 21 22 23 23 23 24 25 26 26 26 27
2 3 2 1 3 5 4 3 1 4 4 4 2 2 3 3 4 4 6 3 2 1 1 2 4 4 2 2 2 3 8 13 17 17 17 21 25 26 25 22 19 17 16 16 15 13 12 10 10 11 10 9 7 5 4 2 1 2 3 4 5 6 7 8 9 10 11 12 14 15 16 18 19 20 21 22 23 23 23 24 25 26 27 28 29 30
3 2 1 2 3 2 4 4 4 2 3 2 2 1 3 3 3 4 4 2 2 2 1 1 4 3 1 3 3 4 9 13 17 19 19 22 25 25 24 21 19 19 18 17 16 14 13 13 13 12 10 8 6 5 3 1 1 2 4 5 6 8 9 10 11 11 12 13 14 16 17 19 21 22 23 24 24 24 25 25 26 27 28 29 29 30
3 1 2 2 3 3 4 3 4 4 0 2 2 1 2 3 5 3 1 3 1 4 5 4 6 4 1 4 5 6 8 10 14 18 17 17 20 23 24 22 22 22 21 19 18 17 15 14 12 11 9 7 6 4 3 2 2 3 5 6 8 10 12 13 14 14 15 15 16 18 20 22 24 25 25 26 26 27 28 29 30 31 31 32 32 33
5 3 3 4 6 7 5 3 3 3 2 1 1 2 2 4 6 4 2 2 2 3 5 5 6 3 2 3 2 1 4 6 10 14 15 15 16 20 23 23 24 24 23 21 20 18 15 13 12 11 9 7 6 4 3 2 3 4 6 8 10 12 13 14 16 17 17 18 19 22 24 26 27 28 28 28 29 29 30 30 31 32 33 35 37 38
3 1 3 6 8 8 5 5 4 3 3 2 2 3 4 4 5 5 3 3 3 2 3 6 5 1 4 4 4 4 5 5 7 11 15 17 17 19 21 22 24 24 23 22 19 17 15 14 13 11 10 8 6 4 3 4 6 8 10 11 12 13 14 14 16 18 19 20 22 24 27 28 30 30 30 30 30 30 31 31 32 34 35 37 39 40
3 2 4 5 6 4 3 4 3 3 4 4 3 5 7 5 6 6 4 5 4 3 7 9 6 5 9 9 7 7 7 6 7 12 16 17 17 19 20 21 22 23 23 21 18 17 16 15 14 12 11 9 6 5 6 7 9 11 12 12 12 12 13 14 16 19 20 22 24 26 28 30 32 32 32 32 31 31 32 33 35 37 38 39 41 42
3 3 3 3 4 3 4 3 3 3 2 4 5 9 10 6 7 7 7 8 7 6 9 9 6 7 10 8 5 8 10 10 12 15 17 16 16 17 19 20 22 23 22 20 18 17 17 17 15 12 10 8 7 8 8 9 10 12 13 13 13 14 15 16 18 20 22 24 25 27 29 32 34 34 34 33 33 33 35 37 39 40 41 42 43 44
3 2 2 3 3 3 1 3 3 4 4 5 7 11 10 6 6 8 9 9 8 9 11 10 9 10 10 7 6 10 13 13 15 17 17 16 16 15 17 20 23 23 21 19 18 17 18 17 14 12 11 11 11 11 11 12 13 15 16 16 17 17 18 19 21 23 24 25 26 28 31 33 34 34 34 34 35 37 39 40 41 42 43 44 45 45
1 1 1 3 1 4 2 2 3 3 3 5 9 11 6 3 5 9 9 6 5 8 11 9 9 11 12 10 8 11 13 11 12 15 16 16 15 14 17 20 22 22 20 17 16 16 17 17 16 15 14 14 14 14 14 15 17 18 19 20 20 20 21 22 22 23 24 25 27 29 32 33 33 33 33 35 37 39 40 42 42 43 44 45 45 46
1 1 1 4 2 4 3 2 3 2 4 5 13 13 7 5 8 9 6 6 8 9 8 6 6 9 12 10 8 10 12 11 13 15 15 15 14 14 17 20 21 20 17 17 16 17 18 18 17 17 17 15 15 15 16 17 19 20 20 20 20 19 19 20 21 23 25 26 29 30 31 31 32 33 35 37 38 40 40 42 42 43 44 45 45 46
3 4 2 3 3 4 4 2 1 5 5 8 11 10 9 10 11 9 7 8 9 7 6 6 8 9 8 7 7 7 9 11 14 16 16 15 15 16 17 19 19 17 16 16 17 17 17 16 15 15 14 13 14 15 16 17 18 18 17 16 16 17 19 21 23 25 27 29 29 29 29 31 33 35 36 37 38 39 40 41 41 42 43 44 45 47
4 5 3 3 3 3 5 1 3 2 6 8 3 4 8 10 11 11 11 11 9 7 6 7 7 6 6 7 8 10 12 14 17 19 18 15 15 17 17 17 16 15 15 16 16 17 16 15 15 14 13 13 14 15 16 16 16 16 15 15 17 21 23 25 26 27 28 28 28 28 30 32 34 36 37 37 38 39 39 40 41 42 43 45 46 48
5 5 3 2 3 2 2 3 2 7 9 5 2 2 5 6 8 8 8 9 9 9 8 8 7 7 9 13 15 16 16 14 12 14 15 14 15 17 17 16 15 15 16 17 17 17 17 17 16 15 14 15 16 17 16 17 17 17 17 18 22 24 25 26 26 26 26 26 27 29 31 33 34 35 37 37 38 39 39 40 41 42 43 45 46 48
6 4 3 2 2 2 2 4 5 7 6 6 5 2 1 1 2 2 4 9 10 9 9 9 10 10 13 17 16 12 8 6 8 11 15 15 16 17 16 16 15 16 17 17 18 17 17 18 18 17 18 18 18 17 17 17 17 18 19 22 24 25 26 26 26 25 25 26 29 31 32 33 35 36 37 37 38 38 39 40 41 42 43 45 47 49
6 4 2 2 3 2 3 5 4 4 8 11 8 3 3 3 5 5 4 9 9 7 9 8 9 10 10 12 11 6 6 6 5 9 15 17 17 17 16 15 15 16 17 16 17 17 17 18 19 19 20 20 18 18 17 18 18 19 21 23 24 26 26 26 26 26 27 29 31 32 33 33 35 35 36 37 37 38 39 40 41 42 44 46 48 49
5 5 5 4 3 2 3 4 4 3 7 10 6 2 3 6 8 7 4 7 6 6 13 11 8 8 6 5 7 9 7 3 2 8 15 18 16 15 14 14 14 14 15 15 17 18 18 19 21 21 21 20 19 18 18 19 19 21 23 24 25 26 27 26 26 27 28 31 32 32 32 33 34 34 35 36 37 38 39 40 42 42 44 46 48 48
2 2 4 4 3 3 4 5 6 6 7 8 6 4 3 9 10 7 2 6 6 9 16 12 7 8 8 9 12 11 5 2 4 11 18 17 15 14 13 12 12 13 14 15 17 18 19 20 21 22 21 21 20 20 19 19 20 22 24 25 26 27 27 26 26 27 30 32 32 32 32 32 32 33 34 35 37 38 39 40 41 42 43 44 45 45
2 1 3 4 6 7 6 6 4 5 6 5 5 6 6 9 9 8 1 9 6 10 16 14 9 10 12 13 14 10 6 7 8 16 20 17 16 15 12 12 14 14 15 17 17 19 20 21 22 23 22 22 21 21 20 21 22 24 25 26 28 28 28 27 27 29 31 32 31 31 31 31 32 33 34 35 37 38 39 39 40 42 42 42 42 42
1 1 3 5 8 9 9 6 4 4 5 4 5 11 11 6 5 3 5 6 8 14 16 15 14 13 14 16 16 13 14 18 18 21 19 14 15 15 14 15 16 15 15 17 18 20 22 23 24 24 24 23 22 22 22 23 25 26 27 28 29 29 28 28 29 30 31 31 30 30 30 30 31 32 34 35 36 38 38 38 39 40 41 41 40 40
2 1 2 4 6 6 5 5 3 5 7 8 10 13 13 5 1 6 5 2 10 15 14 15 16 15 16 20 21 20 22 22 21 23 20 15 14 15 15 17 19 18 17 18 19 21 23 25 26 26 25 25 24 23 24 25 26 27 27 29 29 29 28 28 30 31 31 30 29 29 29 29 30 32 33 34 35 37 37 37 38 38 38 38 38 37
6 4 3 4 4 3 2 4 4 6 7 15 15 6 5 6 6 8 7 7 12 14 13 15 17 16 18 22 23 24 24 22 22 25 23 18 15 15 17 20 21 20 20 20 21 23 25 26 27 27 26 26 25 25 25 26 27 28 28 29 29 28 28 29 31 31 30 29 29 28 28 29 30 31 32 33 34 35 36 36 37 37 36 36 36 36
4 5 4 4 3 5 4 6 6 4 7 22 21 8 11 18 19 17 14 13 15 16 16 17 18 19 21 23 23 25 25 25 25 26 24 21 18 17 20 22 22 22 22 22 23 24 25 27 28 27 27 27 26 26 27 27 28 29 29 29 29 28 28 30 31 31 29 28 28 27 28 29 30 31 31 32 32 34 34 35 36 36 35 34 34 35
7 6 5 3 3 5 5 6 7 5 9 24 27 21 21 26 27 26 21 18 17 18 19 20 20 21 22 24 25 26 26 27 28 28 27 25 22 21 22 24 25 24 23 23 24 25 26 28 28 28 29 28 27 27 27 28 29 29 29 29 28 28 29 31 31 30 28 27 27 27 27 29 29 30 30 30 31 32 33 34 35 35 34 33 32 33
7 5 3 1 1 3 3 5 6 6 10 22 29 27 24 22 23 23 23 22 21 22 23 23 24 24 24 25 26 27 28 28 29 31 30 28 25 24 24 25 26 25 24 24 25 26 27 28 29 29 29 29 28 27 28 28 29 30 29 29 28 29 30 31 30 29 28 27 26 26 28 29 29 29 30 29 30 30 30 31 34 35 33 32 32 33
5 5 3 2 2 2 2 4 7 9 12 19 25 28 28 26 24 23 23 24 25 26 27 27 27 27 27 27 28 28 29 29 30 32 33 32 30 27 26 27 27 26 25 25 25 26 27 28 29 30 30 29 28 27 28 28 29 29 29 28 28 29 30 30 29 28 27 26 26 26 27 29 29 29 30 29 29 29 29 29 31 33 32 31 32 34
4 3 4 4 5 4 4 7 11 14 15 17 21 26 29 28 27 26 25 27 28 29 30 30 29 29 29 29 29 29 30 30 31 32 33 33 32 30 29 29 29 26 25 25 25 27 28 28 29 30 30 29 28 28 28 28 28 28 28 28 29 30 30 29 29 27 26 25 25 26 27 28 28 29 29 29 29 28 28 28 30 32 31 29 31 35
3 2 3 4 4 2 4 9 10 8 9 16 24 28 29 29 30 30 31 32 32 32 33 33 32 32 31 31 30 30 31 32 31 32 33 34 34 33 31 31 30 27 26 25 26 27 28 29 30 30 29 28 28 28 28 27 26 27 27 28 29 29 29 29 28 27 25 25 25 26 27 27 27 28 29 29 29 28 27 26 28 32 32 29 29 32
4 4 3 4 3 3 5 10 11 6 6 17 28 31 31 31 32 32 33 32 31 32 33 34 34 34 35 34 33 32 33 33 32 31 33 34 34 34 33 32 31 28 26 25 27 28 28 29 30 30 29 28 28 28 27 26 25 26 27 28 29 29 28 28 28 26 25 25 26 26 27 27 27 27 28 28 29 29 27 24 23 27 31 31 30 30
13 13 8 6 6 9 11 17 20 16 13 21 29 32 31 30 29 29 29 29 29 29 31 33 34 35 34 34 33 33 33 34 33 32 33 33 34 34 34 33 31 28 26 26 27 27 28 30 31 30 29 28 28 27 26 25 24 25 27 28 28 28 27 27 27 26 25 25 26 26 26 26 26 27 27 27 28 29 29 27 23 20 23 28 31 31
Wind_Direction
145 118 161 210 213 210 213 204 208 224 199 209 227 226 241 246 269 269 267 280 312 326 274 265 260 271 276 278 308 330 353 67 103 104 94 91 89 86 85 82 79 78 77 79 80 80 80 78 76 77 77 81 89 93 93 89 81 77 74 66 60 58 53 106 193 205 209 209 208 210 214 216 218 227 236 241 244 247 251 253 254 256 257 258 259 262
126 154 220 221 217 216 220 201 202 237 231 227 237 258 271 249 257 256 250 280 303 156 256 275 320 289 275 286 342 1 38 68 92 102 96 94 91 87 86 84 84 86 87 88 87 86 86 85 84 83 83 82 81 81 81 80 78 77 77 74 70 69 72 77 79 82 96 120 144 182 206 219 229 235 241 247 253 256 255 253 252 252 250 249 251 253
141 213 237 232 224 231 264 154 164 204 192 186 190 203 260 248 266 276 265 288 348 158 252 311 339 283 280 335 24 37 69 73 89 103 101 100 94 87 86 85 89 91 91 91 89 90 90 89 90 89 87 84 82 81 80 80 80 79 79 76 74 73 74 76 76 77 78 77 76 76 80 83 95 208 233 242 252 260 262 262 259 258 254 249 248 248
183 233 243 238 220 220 265 208 148 157 177 198 187 177 240 234 204 273 279 299 321 259 270 323 317 280 276 80 56 52 78 83 89 97 96 97 93 89 90 90 92 92 90 92 92 93 94 93 92 90 89 87 85 84 81 79 77 76 75 74 74 73 72 72 72 72 73 74 73 70 68 66 66 66 65 78 215 243 253 258 260 263 262 258 254 251
213 236 242 221 174 179 241 265 178 159 238 249 212 203 227 222 204 228 280 318 330 343 8 15 337 295 262 209 94 76 84 82 84 89 87 88 92 94 96 95 94 93 93 95 95 96 95 94 91 89 89 87 83 80 78 76 74 73 73 71 70 70 70 70 69 70 72 74 75 74 72 71 69 67 66 66 64 63 54 275 260 260 260 260 258 256
240 248 224 120 144 166 199 258 230 171 217 284 233 212 214 219 223 224 337 13 18 339 333 37 352 295 294 285 159 137 87 74 76 80 81 84 91 95 95 96 97 97 98 98 97 97 96 95 93 90 87 84 80 77 74 73 71 70 70 69 67 67 66 66 66 67 69 72 74 74 74 73 71 68 66 61 55 50 46 41 30 328 271 255 252 253
243 244 211 165 167 151 175 245 236 167 153 279 249 206 193 182 190 177 133 88 120 247 289 55 142 268 312 320 192 164 111 89 80 71 79 86 90 94 96 99 102 101 102 102 101 100 99 96 93 89 85 80 78 76 74 71 68 67 65 64 63 63 63 62 61 61 62 64 65 65 65 65 64 62 58 53 47 42 40 39 39 32 12 331 268 247
213 224 218 194 181 161 193 247 228 161 134 243 248 140 133 135 156 165 131 130 212 248 317 359 156 253 292 280 209 153 122 109 100 79 84 92 94 98 101 104 106 105 105 105 103 102 98 94 90 86 83 80 77 75 72 69 66 64 61 60 59 59 59 58 56 54 54 55 57 58 58 59 59 58 56 53 45 39 35 32 33 34 30 18 2 334
185 202 214 181 165 187 211 232 197 156 142 240 217 123 121 136 142 127 103 109 292 9 306 286 154 255 266 271 220 153 152 168 158 144 116 107 106 107 109 110 108 108 107 106 105 102 97 93 88 85 82 79 76 72 68 66 64 61 60 57 56 56 57 56 52 48 47 49 51 53 53 54 56 55 55 53 49 44 39 33 29 27 26 21 12 1
58 220 211 151 150 207 211 235 186 163 178 207 155 98 62 71 81 79 103 111 31 350 251 236 180 206 266 280 211 186 223 207 167 156 143 128 123 121 120 118 114 112 110 108 106 102 98 93 89 84 81 76 72 69 67 65 62 59 57 53 50 53 55 54 52 47 46 47 46 48 50 51 54 53 51 49 49 47 43 40 35 29 25 22 16 8
336 350 228 151 182 193 152 92 63 140 157 128 99 54 28 29 42 45 71 89 56 280 250 223 192 183 267 287 194 192 261 197 157 152 159 144 138 137 133 127 123 119 116 113 109 105 100 95 90 84 78 74 71 69 65 60 56 52 51 47 45 50 52 52 52 48 47 47 46 47 46 47 49 47 42 37 37 37 35 34 33 31 27 25 22 15
329 310 261 241 197 142 108 78 34 37 74 97 81 62 42 343 8 24 357 45 118 255 267 235 184 167 226 266 270 290 311 240 169 165 167 156 148 148 143 137 131 126 123 118 113 108 103 97 91 84 78 76 73 66 59 54 50 47 47 44 41 46 50 49 48 46 45 45 45 45 43 42 41 36 32 29 28 27 25 24 25 22 20 18 18 16
308 247 269 319 218 163 116 80 21 10 37 81 89 83 75 329 352 355 304 353 217 251 271 176 133 164 235 238 315 305 320 312 189 163 161 156 151 152 150 145 139 133 128 122 116 110 104 98 91 84 79 76 70 64 59 55 52 50 51 49 44 48 51 47 43 41 41 41 42 42 39 38 36 31 28 26 24 23 19 18 14 10 8 6 4 3
291 293 303 30 267 194 155 141 181 258 117 139 142 126 122 138 190 267 263 266 265 268 276 163 138 276 267 292 338 308 323 333 141 148 153 152 151 155 154 150 146 141 135 127 121 114 107 101 94 87 81 77 72 68 63 59 58 58 61 60 54 58 58 50 45 41 39 39 40 37 33 32 30 27 26 24 22 20 17 14 11 8 8 4 1 360
200 298 231 182 219 184 175 179 165 144 149 178 156 136 147 158 174 223 227 215 254 280 288 246 184 214 222 296 328 339 13 54 119 138 147 150 154 157 156 155 151 145 138 129 123 118 112 105 97 90 83 79 76 73 68 66 68 64 63 63 57 60 58 48 43 39 36 37 35 31 28 26 24 21 20 19 18 16 13 11 7 5 5 3 2 0
166 256 248 245 179 164 174 189 141 111 101 216 127 115 172 189 168 207 220 185 191 291 286 227 214 205 182 269 342 50 60 77 111 132 141 148 155 159 159 159 154 147 140 135 130 124 117 109 101 92 85 82 79 75 71 70 74 75 77 80 78 77 73 61 52 42 36 33 27 24 22 20 19 17 15 14 13 11 9 6 3 1 360 358 356 354
145 264 280 359 46 152 154 170 139 126 184 166 128 180 216 180 132 125 270 235 100 270 267 210 232 287 335 276 342 53 67 86 111 132 144 153 161 166 167 162 157 152 146 142 138 130 123 118 112 102 93 90 88 83 82 87 101 111 114 117 117 115 110 98 85 69 54 42 29 23 19 13 11 7 4 5 4 4 3 358 355 354 352 350 348 346
152 264 282 122 149 235 88 99 72 52 125 133 167 212 203 114 86 98 237 321 17 253 273 272 239 249 241 247 283 81 161 176 180 166 161 168 175 177 174 166 162 158 153 150 147 142 139 138 132 123 117 115 116 116 121 126 128 130 132 132 130 123 109 96 86 76 66 55 46 38 31 20 10 1 355 353 352 351 350 346 345 345 344 342 340 339
133 224 284 250 155 253 26 86 59 10 64 129 180 194 124 128 262 88 164 227 243 246 276 292 268 241 208 208 194 200 203 194 192 190 186 190 190 187 178 170 168 165 162 161 159 160 161 158 158 154 157 162 152 147 143 139 137 136 135 125 105 80 65 58 49 44 38 31 27 21 18 11 4 359 351 346 344 340 337 335 334 334 334 334 333 332
119 145 272 303 164 241 39 89 194 242 33 75 90 26 76 165 181 172 171 173 190 228 259 288 291 267 237 202 183 200 199 181 182 192 199 201 195 188 180 174 174 173 172 173 172 175 175 172 183 190 188 184 167 158 150 141 136 122 96 59 42 32 28 24 18 16 11 7 5 1 359 355 351 348 345 341 339 336 334 332 330 327 325 324 324 322
106 150 232 297 334 131 165 212 195 183 164 121 136 203 239 191 154 229 213 137 147 190 226 268 274 263 260 197 183 206 194 175 183 186 192 201 197 190 184 180 180 180 179 181 183 185 187 191 203 208 208 202 183 171 155 139 121 80 42 25 21 14 10 6 2 1 358 357 357 354 351 348 345 344 341 339 337 335 334 332 330 328 324 322 321 318
137 160 184 251 306 185 224 243 191 178 167 154 175 192 187 167 137 239 253 187 148 181 191 232 264 269 266 259 228 221 185 177 186 181 185 198 195 192 190 187 186 186 187 190 193 195 198 203 208 208 207 200 186 175 160 140 106 49 24 14 10 2 356 352 349 350 350 349 350 348 346 344 342 341 338 336 334 332 331 330 329 327 325 323 322 320
103 113 145 226 212 208 244 294 219 196 152 130 175 182 158 150 138 183 233 220 162 209 153 184 257 272 262 294 305 202 170 175 184 182 185 195 196 196 196 194 192 194 198 201 202 203 205 206 206 203 198 192 184 176 168 151 79 24 8 0 353 345 340 337 336 336 337 339 340 340 339 337 334 333 331 330 329 328 327 326 326 325 324 322 321 320
89 97 182 263 302 313 318 336 346 2 88 111 267 160 139 164 151 177 215 168 139 242 215 220 252 244 272 342 29 128 157 169 184 190 191 196 200 201 199 199 201 204 205 207 208 210 209 205 203 200 195 191 185 182 185 195 334 340 342 341 337 331 326 325 325 324 325 329 332 333 333 331 329 327 327 328 328 327 327 326 325 325 323 321 320 319
169 158 154 205 299 324 332 343 344 335 352 178 242 208 147 131 112 106 117 106 138 225 192 217 250 241 295 8 59 117 149 171 192 199 200 203 204 203 204 207 211 211 210 211 212 212 209 206 204 201 197 195 195 201 211 241 286 312 325 328 326 323 321 319 316 314 315 318 324 327 328 328 327 327 327 327 327 327 327 327 326 325 323 322 320 318
178 184 152 177 225 241 240 222 221 253 241 202 248 220 177 137 131 129 122 140 211 205 170 210 245 264 346 357 22 172 183 194 208 209 212 218 214 210 212 217 220 217 216 216 214 210 208 206 204 202 202 203 203 204 210 246 284 305 313 317 318 315 313 310 307 306 309 313 319 323 324 325 326 326 325 325 325 325 325 324 323 322 321 320 319 317
131 202 197 198 225 234 217 210 205 165 162 196 243 220 205 180 144 127 119 166 205 196 210 228 218 229 287 255 218 236 233 224 228 221 219 224 227 225 225 228 228 223 219 218 212 207 206 205 204 205 206 205 199 205 238 276 293 301 306 310 312 311 307 306 304 303 306 311 316 318 319 321 322 322 322 321 322 322 321 321 319 318 316 315 314 313
107 228 226 207 235 238 156 175 202 145 166 200 220 241 236 202 139 135 177 201 174 180 243 243 193 185 249 242 203 213 231 232 236 232 230 235 241 242 239 235 228 221 217 213 207 206 208 205 205 205 204 203 211 240 270 287 293 296 299 302 302 299 297 296 296 297 300 306 309 310 312 315 317 318 318 318 318 318 317 316 314 313 312 310 310 309
124 225 219 164 234 242 123 152 185 146 188 218 219 240 248 224 160 162 210 213 180 198 248 252 212 207 241 245 202 202 215 221 239 251 252 253 254 251 247 238 226 216 209 205 204 210 211 209 208 210 211 219 237 257 273 279 279 278 277 278 278 278 279 281 283 286 291 296 299 301 305 310 313 313 313 314 314 314 313 312 311 310 309 309 308 308
124 212 184 137 232 258 154 183 192 169 206 238 236 238 244 236 190 193 224 223 198 220 248 256 256 256 254 240 222 236 239 233 243 255 258 256 255 250 242 232 221 210 204 205 210 214 215 215 217 222 228 235 243 254 263 264 263 265 264 265 267 268 269 272 274 277 282 286 290 295 301 306 308 308 309 310 310 310 310 309 309 309 309 309 309 309
111 187 139 106 213 290 297 198 185 163 188 239 258 251 234 203 218 226 234 227 211 235 246 252 264 270 265 248 234 251 257 239 231 240 245 251 252 241 228 218 208 203 203 208 212 213 217 221 222 226 230 234 240 248 255 260 262 263 264 265 267 268 269 270 271 273 276 280 286 293 298 302 303 304 306 307 308 308 308 309 309 310 310 310 310 310
114 179 48 79 135 281 310 204 204 34 23 287 271 260 230 207 235 240 228 208 212 228 237 240 248 254 261 260 246 247 248 233 225 228 230 236 235 225 215 204 198 201 207 210 211 213 219 222 222 223 226 230 239 248 256 262 265 266 267 269 270 271 272 272 272 274 278 283 288 293 296 299 301 303 305 306 307 308 308 309 310 310 311 311 311 311
132 147 128 111 156 271 298 241 187 37 7 283 265 245 221 224 237 245 248 235 219 205 200 217 231 237 246 254 253 249 238 231 234 231 223 219 216 212 209 201 198 207 211 209 211 214 217 219 219 221 224 232 245 255 261 265 267 269 269 270 274 277 279 280 280 281 284 288 291 294 297 299 302 304 306 307 308 309 309 310 311 312 312 313 313 313
136 134 157 154 143 250 265 261 63 21 260 257 252 168 191 213 223 230 243 242 222 198 201 224 238 236 226 224 230 238 239 240 243 237 225 218 215 212 208 203 204 212 212 212 215 218 220 221 220 223 231 244 256 264 267 269 270 270 269 274 283 289 289 288 287 287 288 290 292 295 299 302 305 307 308 309 310 310 311 312 313 314 315 315 314 314
148 135 150 146 116 195 209 96 116 241 245 266 354 117 181 202 209 219 243 250 232 214 216 233 242 230 223 226 231 241 249 247 238 223 209 210 219 216 209 209 214 218 218 219 221 222 225 225 226 233 246 258 265 267 267 268 268 268 271 283 293 295 294 291 290 289 290 291 295 300 303 307 309 310 311 311 312 312 313 314 315 316 316 315 315 315
156 148 148 148 138 155 142 152 207 248 286 302 290 246 159 160 166 188 276 266 243 217 204 222 237 234 234 239 242 248 244 211 191 193 195 206 219 219 218 224 227 226 227 229 230 231 233 234 237 248 257 263 264 262 262 263 264 268 279 291 297 297 295 294 293 292 293 296 302 306 309 311 312 312 312 313 313 314 315 316 316 317 317 317 316 315
154 149 140 176 197 171 172 211 243 324 314 286 267 195 172 200 169 155 231 258 251 210 184 199 231 236 234 242 243 227 190 176 185 205 210 220 228 227 229 235 232 230 232 235 237 238 239 242 247 255 260 260 258 257 258 261 265 275 288 296 298 298 297 296 294 294 298 303 308 311 312 313 313 313 314 314 315 316 316 317 318 319 319 318 317 316
163 170 168 191 218 139 143 235 270 286 263 261 256 216 202 204 183 161 194 265 278 208 185 186 209 214 196 197 196 178 170 181 271 245 233 232 230 225 226 229 228 231 232 230 232 236 240 248 254 257 258 256 255 256 259 263 272 285 294 297 298 298 297 296 295 297 302 307 310 312 313 313 314 314 314 315 316 317 318 319 320 321 320 319 317 317
149 168 154 170 205 161 165 221 229 230 249 253 251 253 197 176 166 122 101 276 267 196 185 179 183 198 193 189 182 167 159 193 243 254 247 233 219 218 222 224 228 233 233 232 237 244 251 255 257 256 256 256 257 260 264 271 282 292 297 299 299 299 297 295 296 300 305 309 311 312 313 314 314 315 315 316 317 318 320 321 321 321 320 319 318 317
143 145 159 187 214 213 211 226 231 242 255 250 239 226 177 156 132 93 14 269 238 179 179 178 189 212 216 206 187 167 181 209 235 267 262 237 220 224 228 233 238 239 239 240 244 250 255 257 258 258 258 259 262 265 269 278 289 295 298 300 299 298 297 296 298 302 307 309 311 312 313 314 315 316 317 318 319 320 320 321 322 321 320 319 318 315
150 204 199 208 224 224 219 228 256 262 243 220 192 185 171 130 89 141 230 238 180 172 183 191 207 222 219 207 194 194 224 239 256 273 268 234 219 226 231 237 242 240 240 243 247 252 256 258 259 259 260 261 264 267 274 283 291 296 298 298 298 297 297 297 300 304 308 309 310 312 313 315 316 317 318 319 320 320 321 322 322 321 321 319 316 314
151 169 223 218 225 226 225 231 258 276 245 197 172 178 174 139 131 215 228 187 176 190 205 212 219 226 222 216 213 222 242 255 263 264 254 231 226 234 235 236 236 235 239 244 248 253 256 257 258 259 260 262 264 269 277 286 292 295 296 296 296 296 295 297 301 305 308 309 311 312 314 316 317 317 318 319 320 320 321 322 322 321 321 318 315 314
165 157 210 228 198 165 210 221 221 267 226 169 153 163 192 186 218 237 249 253 234 232 235 229 231 238 235 229 229 235 247 259 262 257 247 235 239 246 243 239 237 239 246 250 253 256 258 258 259 259 260 262 265 271 280 288 292 293 294 295 294 294 294 298 302 305 307 309 311 313 315 316 317 317 318 320 320 319 321 323 322 321 320 317 317 319
181 166 191 227 187 149 187 210 210 258 187 162 161 187 210 211 232 245 243 244 246 245 243 240 246 252 246 240 240 242 246 253 258 254 242 234 244 253 248 241 239 242 250 255 257 260 260 260 260 259 259 262 267 275 283 288 290 292 294 294 293 293 295 300 303 305 307 309 311 314 315 316 316 317 319 320 319 319 322 324 322 320 319 320 322 324
216 193 172 198 199 170 188 215 219 235 189 177 187 207 213 218 235 243 241 242 245 245 245 245 250 256 254 250 247 245 246 251 256 254 244 240 251 256 248 242 241 246 253 256 257 259 260 260 259 258 259 263 269 277 284 287 289 291 293 293 292 293 297 302 304 305 307 310 312 315 315 315 316 318 319 319 319 321 324 324 322 320 321 324 327 328
233 209 140 102 236 217 226 227 214 218 206 195 201 214 221 227 237 241 242 246 250 253 254 253 255 260 260 255 249 246 249 254 258 255 248 246 255 258 249 242 242 246 252 254 256 258 258 257 257 257 260 266 272 279 284 285 287 290 291 290 291 294 299 302 304 305 308 310 313 315 315 314 316 318 319 319 321 323 325 325 321 320 323 329 332 332
262 218 176 187 228 218 231 222 200 203 207 201 205 216 224 229 237 242 246 252 257 262 262 261 263 265 264 260 255 253 257 261 261 258 252 250 254 256 249 243 243 247 253 257 258 258 256 255 257 259 263 268 274 279 282 283 287 289 288 288 292 297 300 302 303 305 308 311 313 314 313 314 316 318 319 320 322 324 325 325 321 320 325 333 335 335
247 191 175 212 220 207 237 246 225 215 212 205 208 219 225 230 239 247 254 260 264 266 265 264 264 263 263 261 258 258 262 265 263 262 258 254 255 254 249 245 245 249 255 259 259 257 256 257 259 261 264 270 275 278 280 283 287 287 286 289 294 298 300 301 303 306 308 311 313 313 312 313 316 317 318 320 322 324 325 325 322 320 326 336 339 338
204 194 186 195 205 220 262 258 244 235 237 231 230 234 238 243 250 257 263 266 268 268 267 265 264 264 264 264 263 263 264 266 266 263 260 258 257 255 250 246 246 249 256 260 260 259 259 260 261 263 267 271 274 277 280 283 284 284 286 291 296 298 300 301 302 306 309 311 311 310 310 313 316 317 319 320 321 322 325 327 325 323 327 337 343 343
194 230 199 148 176 226 233 230 223 217 246 247 247 251 255 257 260 263 265 267 268 269 270 266 264 265 266 266 268 268 267 269 269 264 260 260 260 258 253 247 245 249 256 260 260 260 261 262 263 264 268 271 273 276 280 282 282 283 287 293 296 297 299 301 303 306 308 309 308 308 310 313 316 318 320 321 321 321 322 325 326 326 329 336 342 344
218 229 215 175 207 235 236 233 227 219 230 249 256 262 266 266 266 265 265 268 270 272 273 268 265 266 268 269 271 271 269 270 269 264 262 262 261 259 255 248 245 250 258 261 262 262 263 263 264 266 268 270 273 276 280 280 281 285 290 293 295 296 298 300 303 305 307 307 306 307 311 313 316 319 320 320 321 321 322 324 324 324 330 337 341 342